This is the latest recevied weather packets stored in our database for station/object IZ1UQG-N2. If no packets are shown the sender has not sent any weather packets the latest 10 day(s).
| Time | Temp. | Humidity | Pressure | Rain* | Wind** | Luminosity | Snow |
|---|---|---|---|---|---|---|---|
| 1787900763 | 22.78° C | 90% | 1014.3 hPa | 1.78 mm | - | 28 W/m² | - |
| 1787900703 | 22.78° C | 90% | 1014.3 hPa | 1.27 mm | - | 21 W/m² | - |
| 1787900644 | 22.78° C | 90% | 1014.3 hPa | 0.76 mm | - | 14 W/m² | - |
| 1787900582 | 22.78° C | 90% | 1014.2 hPa | 0.25 mm | - | 9 W/m² | - |
| 1787900526 | 22.78° C | 90% | 1014.2 hPa | 0 mm | - | 9 W/m² | - |
| 1787900464 | 22.78° C | 90% | 1014.1 hPa | 0 mm | - | 7 W/m² | - |
| 1787900404 | 22.78° C | 90% | 1014.1 hPa | 0 mm | - | 9 W/m² | - |
| 1787900344 | 22.78° C | 90% | 1014.1 hPa | 0 mm | - | 9 W/m² | - |
| 1787900283 | 22.78° C | 90% | 1014 hPa | 0 mm | - | 11 W/m² | - |
| 1787900222 | 22.78° C | 90% | 1013.9 hPa | 0 mm | - | 11 W/m² | - |
| 1787900162 | 22.78° C | 90% | 1013.9 hPa | 0 mm | - | 12 W/m² | - |
| 1787900104 | 22.78° C | 90% | 1014 hPa | 0 mm | - | 14 W/m² | - |
| 1787900042 | 22.78° C | 90% | 1014.1 hPa | 0 mm | - | 16 W/m² | - |
| 1787899983 | 22.78° C | 90% | 1014.2 hPa | 0 mm | - | 18 W/m² | - |
| 1787899923 | 22.78° C | 90% | 1014.2 hPa | 0 mm | - | 21 W/m² | - |
| 1787899863 | 22.78° C | 90% | 1014.2 hPa | 0 mm | - | 26 W/m² | - |
| 1787899803 | 22.78° C | 90% | 1014.3 hPa | 0 mm | - | 26 W/m² | - |
| 1787899743 | 22.78° C | 90% | 1014.3 hPa | 0 mm | - | 26 W/m² | - |
| 1787899683 | 22.78° C | 90% | 1014.3 hPa | 0 mm | - | 28 W/m² | - |
| 1787899623 | 22.78° C | 90% | 1014.4 hPa | 0 mm | - | 30 W/m² | - |
| 1787899562 | 22.78° C | 90% | 1014.3 hPa | 0 mm | - | 33 W/m² | - |
| 1787899504 | 22.78° C | 90% | 1014.4 hPa | 0 mm | - | 32 W/m² | - |
| 1787899444 | 22.78° C | 90% | 1014.6 hPa | 0 mm | - | 30 W/m² | - |
| 1787899383 | 22.78° C | 90% | 1014.5 hPa | 0 mm | - | 28 W/m² | - |
| 1787899323 | 22.78° C | 90% | 1014.5 hPa | 0 mm | - | 26 W/m² | - |
* Rain latest hour (hover to see other rain measurements)
** Current wind speed in m/s (hover to see current wind gust speed)